Regional Weather Roundup
Issued by NWS

Home | Current Version | Previous Version | Graphics & Text | Print | Product List | Glossary On
Versions: 1 2 3 4 5 6 7 8 9 10 11 12 13 14 15 16 17 18 19 20 21 22 23 24 25 26 27 28 29 30 31 32 33 34 35 36 37 38 39 40 41 42 43 44 45 46 47 48 49 50
000
ASUS43 KFSD 280510
RWRSD

WEATHER ROUNDUP FOR SOUTH DAKOTA
NATIONAL WEATHER SERVICE SIOUX FALLS SD
1200 AM CDT WED JUN 28 2017

NOTE: "FAIR" INDICATES FEW OR NO CLOUDS BELOW 12,000 FEET WITH NO
SIGNIFICANT WEATHER AND/OR OBSTRUCTIONS TO VISIBILITY.


SDZ001>005-009-010-012>017-280600-
NORTHWEST AND NORTH CENTRAL SOUTH DAKOTA

CITY           SKY/WX    TMP DP  RH WIND       PRES   REMARKS
BUFFALO          N/A     67  52  58 NW22      29.66R
FAITH            N/A     70  55  59 W22G33    29.64R
MOBRIDGE       CLOUDY    77  54  44 SW12      29.49R
$$

SDZ012>016-024>037-041>051-057-063-072>074-280600-
SOUTHWEST AND SOUTH CENTRAL SOUTH DAKOTA

CITY           SKY/WX    TMP DP  RH WIND       PRES   REMARKS
RAPID CTY ARPT CLOUDY    65  51  60 NW13      29.74R
PIERRE         CLOUDY    73  54  51 W25G39    29.47F
CUSTER         CLOUDY    56  44  64 W7        29.88R
ELLSWORTH AFB  CLOUDY    65  51  59 NW13      29.73R
PHILIP         CLOUDY    68  57  68 W12       29.64S
PINE RIDGE     CLOUDY    60  57  89 NW5       29.76R
SPEARFISH      FAIR      63  52  67 W12       29.82S
WINNER         FAIR      73  53  49 SW9       29.61F
$$

SDZ004>011-016>023-039-040-280600-
NORTHEAST SOUTH DAKOTA

CITY           SKY/WX    TMP DP  RH WIND       PRES   REMARKS
ABERDEEN       CLOUDY    75  64  68 S15       29.50F
WATERTOWN      CLOUDY    70  60  70 S14       29.59F
BROOKINGS      CLOUDY    71  62  73 SE12      29.64F
SISSETON         N/A     70  55  59 SE20G26   29.55F
$$

SDZ017-020-022-023-036>040-048>070-280600-
SOUTHEAST SOUTH DAKOTA

CITY           SKY/WX    TMP DP  RH WIND       PRES   REMARKS
SIOUX FALLS    CLOUDY    71  67  87 S15       29.67F THUNDER
HURON          CLOUDY    75  66  73 S14       29.55F
CHAMBERLAIN    CLOUDY    75  55  50 W12G18    29.57F
MITCHELL       CLOUDY    74  65  73 SW13G25   29.60F
YANKTON        CLOUDY    71  68  90 SE7       29.61F
$$

ABBREVIATIONS USED IN REMARKS
   TC - TEMPERATURE IN CELSIUS
  WCI - WIND CHILL INDEX
   HX - HEAT INDEX
  VSB - VISIBILITY




USA.gov is the U.S. government's official web portal to all federal, state and local government web resources and services.